When you browse on this site, cookies collect data to enhance your experience and personalize the content and advertising you see.
Visit our Privacy Policy to learn more. By continuing to use the site, you agree to this use of cookies and data.
  • In Romania
  • List of Countries
  • For 7 days
  • Water Temperature
  • Weather Map
  • Weather Widgets
  • user-avatar
    Login

    Hourly Weather Tomaszów Lubelski

    Today, 21 August, Wednesday

    Time Temperature Precipitation Wind Pressure Humidity
    00:00 +21°C° 0 mm 2 mps 741 mmHg 93%
    01:00 +20°C° 0 mm 2 mps 741 mmHg 93%
    02:00 +20°C° 0 mm 2 mps 740 mmHg 95%
    03:00 +20°C° 0 mm 2 mps 740 mmHg 92%
    04:00 +19°C° 0 mm 3 mps 740 mmHg 89%
    05:00 +19°C° 0 mm 3 mps 740 mmHg 86%
    06:00 +20°C° 0 mm 3 mps 740 mmHg 84%
    07:00 +21°C° 0 mm 3 mps 740 mmHg 82%
    08:00 +24°C° 0 mm 3 mps 740 mmHg 80%
    09:00 +25°C° 0 mm 4 mps 741 mmHg 75%
    10:00 +27°C° 0 mm 4 mps 741 mmHg 69%
    11:00 +28°C° 0 mm 5 mps 741 mmHg 64%
    12:00 +28°C° 0.1 mm 5 mps 742 mmHg 67%
    13:00 +27°C° 0.1 mm 6 mps 742 mmHg 71%
    14:00 +27°C° 0.1 mm 7 mps 742 mmHg 74%
    15:00 +24°C° 0.2 mm 6 mps 743 mmHg 76%
    16:00 +23°C° 0.2 mm 6 mps 743 mmHg 78%
    17:00 +22°C° 0.2 mm 5 mps 743 mmHg 80%
    18:00 +20°C° 0 mm 5 mps 744 mmHg 79%
    19:00 +19°C° 0 mm 5 mps 744 mmHg 78%
    20:00 +17°C° 0 mm 5 mps 745 mmHg 78%
    21:00 +17°C° 0 mm 4 mps 745 mmHg 79%
    22:00 +17°C° 0 mm 4 mps 745 mmHg 81%
    23:00 +16°C° 0 mm 3 mps 745 mmHg 82%

    Tomorrow, 22 August, Thursday

    Time Temperature Precipitation Wind Pressure Humidity
    00:00 +14°C° 0 mm 3 mps 746 mmHg 84%
    01:00 +13°C° 0 mm 3 mps 746 mmHg 86%
    02:00 +13°C° 0 mm 3 mps 746 mmHg 87%
    03:00 +12°C° 0 mm 3 mps 746 mmHg 89%
    04:00 +12°C° 0 mm 3 mps 746 mmHg 91%
    05:00 +13°C° 0 mm 2 mps 746 mmHg 92%
    06:00 +12°C° 0 mm 3 mps 746 mmHg 89%
    07:00 +13°C° 0 mm 3 mps 746 mmHg 86%
    08:00 +14°C° 0 mm 4 mps 747 mmHg 84%
    09:00 +15°C° 0 mm 4 mps 747 mmHg 79%
    10:00 +17°C° 0 mm 4 mps 747 mmHg 74%
    11:00 +19°C° 0 mm 4 mps 747 mmHg 70%
    12:00 +20°C° 0 mm 4 mps 747 mmHg 67%
    13:00 +21°C° 0 mm 4 mps 747 mmHg 64%
    14:00 +22°C° 0 mm 4 mps 746 mmHg 61%
    15:00 +22°C° 0 mm 4 mps 746 mmHg 62%
    16:00 +22°C° 0 mm 4 mps 746 mmHg 64%
    17:00 +21°C° 0 mm 4 mps 746 mmHg 65%
    18:00 +20°C° 0 mm 3 mps 746 mmHg 70%
    19:00 +19°C° 0 mm 3 mps 746 mmHg 75%
    20:00 +18°C° 0 mm 3 mps 746 mmHg 80%
    21:00 +17°C° 0 mm 3 mps 746 mmHg 81%
    22:00 +17°C° 0 mm 3 mps 746 mmHg 83%
    23:00 +16°C° 0 mm 3 mps 746 mmHg 84%

    Day after tomorrow, 23 August, Friday

    Time Temperature Precipitation Wind Pressure Humidity
    00:00 +16°C° 0 mm 3 mps 746 mmHg 84%
    01:00 +16°C° 0 mm 3 mps 746 mmHg 84%
    02:00 +15°C° 0 mm 4 mps 746 mmHg 84%
    03:00 +14°C° 0 mm 3 mps 746 mmHg 87%
    04:00 +14°C° 0 mm 3 mps 745 mmHg 90%
    05:00 +14°C° 0 mm 2 mps 745 mmHg 93%
    06:00 +14°C° 0 mm 3 mps 746 mmHg 90%
    07:00 +16°C° 0 mm 3 mps 746 mmHg 86%
    08:00 +18°C° 0 mm 3 mps 746 mmHg 82%
    09:00 +19°C° 0 mm 4 mps 746 mmHg 76%
    10:00 +20°C° 0 mm 4 mps 746 mmHg 70%
    11:00 +22°C° 0 mm 4 mps 746 mmHg 64%
    12:00 +22°C° 0 mm 4 mps 746 mmHg 61%
    13:00 +23°C° 0 mm 4 mps 746 mmHg 59%
    14:00 +23°C° 0 mm 4 mps 746 mmHg 57%
    15:00 +23°C° 0 mm 4 mps 746 mmHg 58%
    16:00 +23°C° 0 mm 4 mps 746 mmHg 60%
    17:00 +23°C° 0 mm 4 mps 745 mmHg 61%
    18:00 +21°C° 0 mm 4 mps 745 mmHg 67%
    19:00 +19°C° 0 mm 3 mps 745 mmHg 73%
    20:00 +17°C° 0 mm 2 mps 745 mmHg 78%
    21:00 +17°C° 0 mm 3 mps 745 mmHg 79%
    22:00 +16°C° 0 mm 3 mps 745 mmHg 79%
    23:00 +14°C° 0 mm 3 mps 745 mmHg 80%

    24 August, Saturday

    Time Temperature Precipitation Wind Pressure Humidity
    00:00 +14°C° 0 mm 3 mps 745 mmHg 82%
    01:00 +14°C° 0 mm 3 mps 745 mmHg 83%
    02:00 +13°C° 0 mm 3 mps 744 mmHg 85%
    03:00 +13°C° 0 mm 3 mps 744 mmHg 86%
    04:00 +13°C° 0 mm 3 mps 744 mmHg 86%
    05:00 +12°C° 0 mm 3 mps 744 mmHg 86%
    06:00 +14°C° 0 mm 3 mps 744 mmHg 83%
    07:00 +15°C° 0 mm 4 mps 744 mmHg 80%
    08:00 +17°C° 0 mm 4 mps 744 mmHg 77%
    09:00 +19°C° 0 mm 4 mps 744 mmHg 73%
    10:00 +20°C° 0 mm 5 mps 744 mmHg 70%
    11:00 +22°C° 0 mm 5 mps 744 mmHg 66%
    12:00 +23°C° 0 mm 5 mps 744 mmHg 65%
    13:00 +25°C° 0 mm 4 mps 744 mmHg 64%
    14:00 +25°C° 0 mm 4 mps 743 mmHg 63%
    15:00 +25°C° 0 mm 4 mps 743 mmHg 64%
    16:00 +25°C° 0 mm 4 mps 743 mmHg 65%
    17:00 +25°C° 0 mm 4 mps 742 mmHg 66%
    18:00 +22°C° 0 mm 4 mps 742 mmHg 71%
    19:00 +21°C° 0 mm 3 mps 742 mmHg 77%
    20:00 +19°C° 0 mm 3 mps 742 mmHg 82%
    21:00 +18°C° 0 mm 3 mps 742 mmHg 83%
    22:00 +18°C° 0 mm 3 mps 742 mmHg 84%
    23:00 +17°C° 0 mm 3 mps 742 mmHg 85%

    25 August, Sunday

    Time Temperature Precipitation Wind Pressure Humidity
    00:00 +17°C° 0 mm 3 mps 742 mmHg 88%
    01:00 +17°C° 0 mm 3 mps 742 mmHg 91%
    02:00 +16°C° 0 mm 2 mps 742 mmHg 94%
    03:00 +16°C° 0 mm 3 mps 742 mmHg 94%
    04:00 +16°C° 0 mm 3 mps 742 mmHg 95%
    05:00 +16°C° 0 mm 3 mps 741 mmHg 95%
    06:00 +17°C° 0 mm 3 mps 742 mmHg 92%
    07:00 +18°C° 0 mm 3 mps 742 mmHg 88%
    08:00 +19°C° 0 mm 4 mps 742 mmHg 85%
    09:00 +21°C° 0 mm 4 mps 742 mmHg 80%
    10:00 +22°C° 0 mm 4 mps 742 mmHg 75%
    11:00 +25°C° 0 mm 4 mps 742 mmHg 70%
    12:00 +26°C° 0 mm 4 mps 742 mmHg 68%
    13:00 +27°C° 0 mm 4 mps 742 mmHg 66%
    14:00 +27°C° 0 mm 4 mps 742 mmHg 64%
    15:00 +27°C° 0 mm 4 mps 742 mmHg 66%
    16:00 +27°C° 0 mm 4 mps 741 mmHg 67%
    17:00 +27°C° 0 mm 4 mps 741 mmHg 68%
    18:00 +25°C° 0 mm 4 mps 741 mmHg 74%
    19:00 +22°C° 0 mm 4 mps 741 mmHg 80%
    20:00 +21°C° 0 mm 3 mps 741 mmHg 86%
    21:00 +20°C° 0 mm 3 mps 741 mmHg 89%
    22:00 +20°C° 0 mm 3 mps 741 mmHg 91%
    23:00 +19°C° 0 mm 4 mps 742 mmHg 93%

    26 August, Monday

    Time Temperature Precipitation Wind Pressure Humidity
    00:00 +19°C° 0 mm 3 mps 741 mmHg 93%
    01:00 +18°C° 0 mm 3 mps 741 mmHg 93%
    02:00 +18°C° 0 mm 3 mps 741 mmHg 93%
    03:00 +18°C° 0 mm 3 mps 741 mmHg 91%
    04:00 +17°C° 0 mm 3 mps 741 mmHg 90%
    05:00 +17°C° 0 mm 4 mps 740 mmHg 88%
    06:00 +18°C° 0 mm 4 mps 741 mmHg 83%
    07:00 +19°C° 0 mm 4 mps 741 mmHg 78%
    08:00 +20°C° 0 mm 5 mps 741 mmHg 72%
    09:00 +21°C° 0 mm 5 mps 741 mmHg 69%
    10:00 +23°C° 0 mm 5 mps 741 mmHg 65%
    11:00 +25°C° 0 mm 5 mps 741 mmHg 61%
    12:00 +26°C° 0 mm 5 mps 741 mmHg 60%
    13:00 +27°C° 0 mm 4 mps 741 mmHg 58%
    14:00 +29°C° 0 mm 4 mps 741 mmHg 56%
    15:00 +28°C° 0 mm 4 mps 740 mmHg 57%
    16:00 +28°C° 0 mm 4 mps 740 mmHg 58%
    17:00 +28°C° 0 mm 4 mps 740 mmHg 59%
    18:00 +26°C° 0 mm 3 mps 739 mmHg 65%
    19:00 +25°C° 0 mm 3 mps 739 mmHg 70%
    20:00 +22°C° 0 mm 3 mps 739 mmHg 75%
    21:00 +21°C° 0 mm 3 mps 739 mmHg 76%
    22:00 +20°C° 0 mm 3 mps 739 mmHg 77%
    23:00 +20°C° 0 mm 3 mps 739 mmHg 78%
    Show more